Location: ?????
(32.7281°N, 34.9563°E)
Time: 01:22:37
(UTC+00:00)

Cosmos 1980 Rocket - Pass Details

Date: 29 October 2020
Orbit: 831 x 848 km, 71.0° (Epoch: 25 November)

Event Time Altitude Azimuth Distance (km) Brightness Sun altitude
Rises 15:44:05 0° 180° (S) 3,378 5.5 -11.6°
Reaches altitude 10° 15:46:38 10° 173° (S) 2,444 4.6 -12.1°
Maximum altitude 15:51:52 41° 105° (ESE) 1,192 2.6 -13.2°
Drops below altitude 10° 15:57:05 10° 36° (NE) 2,447 4.2 -14.3°
Enters shadow 15:57:40 - 34° (NE) 2,655 4.4 -14.4°
